リニア彗星

285P/LINEAR (2023)

English version
Home page
Updated on March 5, 2023

---------------------------------------------------------------------

・ プロフィール

・ 写真集

・ 軌道要素

Epoch 2022 Aug. 9.0 TT = JDT 2459800.5
T 2023 Jan. 12.29328 TT                                 Rudenko
q   1.7192640            (2000.0)            P               Q
n   0.10296956     Peri.  178.43304     +0.99738886     -0.05971096
a   4.5081339      Node   185.50784     +0.06079914     +0.99780869
e   0.6186307      Incl.   25.03772     +0.03897341     -0.02850308
P   9.57
From 771 observations 2003 Sept. 19-2022 Sept. 5, mean residual 0".7.

・ 光度変化

        m1 = 16.0 + 5 logΔ + 10.0 log r           [    ,-165]  (              〜2022年 7月31日)
        m1 = -4.5 + 5 logΔ + 40   log r(t + 400)  [-165,-117]  (2022年 7月31日〜2022年 9月17日)
        m1 = 12.5 + 5 logΔ + 10.0 log r(t + 50)   [-117,    ]  (2022年 9月17日〜              )

---------------------------------------------------------------------

軌道要素はM.P.E.C. 2022-R139に掲載されたものです。
光度グラフはComet for Windowsで作成したものです。

---------------------------------------------------------------------

Copyright(C) Seiichi Yoshida (comet@aerith.net). All rights reserved.